Beckley, WV

5:30 AM EST on December 16, 2019 (GMT -0500)
Raleigh County Memorial

Weather History for KBKW - June, 2019

Change the Weather History Date:

Tuesday, June 4, 2019

  Actual Average Record
Temperature  
Mean Temperature 62 °F 65 °F  
Max Temperature 77 °F 74 °F 92 °F (1925)
Min Temperature 47 °F 55 °F 34 °F (1956)
Degree Days  
Heating Degree Days 3 3  
Month to date heating degree days 9 12  
Since 1 June heating degree days 9 12  
Since 1 July heating degree days 4760 5313  
Cooling Degree Days 0 2  
Month to date cooling degree days 3 8  
Year to date cooling degree days 123 49  
Since 1 June cooling degree days 3 8  
Growing Degree Days 12 (Base 50)    
Moisture  
Dew Point 47 °F    
Average Humidity 61    
Maximum Humidity 86    
Minimum Humidity 36    
Precipitation  
Precipitation 0.00 in 0.14 in 1.29 in (1936)
Month to date precipitation 0.00 0.55  
Year to date precipitation 20.34 17.71  
Sea Level Pressure  
Sea Level Pressure 30.11 in    
Wind  
Wind Speed 5 mph (South)    
Max Wind Speed 12 mph    
Max Gust Speed 17 mph    
Visibility 10 miles    
Events      
T = Trace of Precipitation, MM = Missing Value Source: NWS Daily Summary

Daily Weather History Graph

Daily Weather History Graph

Search for Another Location

Airport or City:

Astronomy

Jun. 04, 2019 Rise Set
Actual Time 6:03 AM EDT 8:42 PM EDT
Civil Twilight 5:32 AM EDT 9:13 PM EDT
Nautical Twilight 4:54 AM EDT 9:52 PM EDT
Astronomical Twilight 4:10 AM EDT 10:35 PM EDT
Moon 7:10 AM EDT (6/4) 10:09 PM EDT (6/4)
Length of Visible Light 15h 41m
Length of Day
14h 39m
New Moon, 2% of the Moon is Illuminated
Jun 4
New Moon
Jun 10
First Quarter
Jun 17
Full
Jun 25
Last Quarter
Jul 2
New

Hourly Weather History & Observations

Time (EDT) Temp. Dew Point Humidity Pressure Visibility Wind Dir Wind Speed Gust Speed Precip Events Conditions
12:51 AM 48.9 °F 43.0 °F 80% 30.16 in 10.0 mi Calm Calm - N/A   Clear
1:51 AM 50.0 °F 44.1 °F 80% 30.14 in 10.0 mi Calm Calm - N/A   Clear
2:51 AM 50.0 °F 44.1 °F 80% 30.14 in 10.0 mi Calm Calm - N/A   Clear
3:51 AM 48.9 °F 43.0 °F 80% 30.15 in 10.0 mi Calm Calm - N/A   Clear
4:51 AM 48.0 °F 43.0 °F 83% 30.16 in 10.0 mi Calm Calm - N/A   Clear
5:51 AM 46.9 °F 43.0 °F 86% 30.17 in 10.0 mi Calm Calm - N/A   Clear
6:51 AM 48.0 °F 44.1 °F 86% 30.19 in 10.0 mi Calm Calm - N/A   Clear
7:51 AM 54.0 °F 46.9 °F 77% 30.19 in 10.0 mi Calm Calm - N/A   Clear
8:51 AM 60.1 °F 46.0 °F 60% 30.19 in 10.0 mi SSW 3.5 mph - N/A   Clear
9:51 AM 64.9 °F 44.1 °F 47% 30.19 in 10.0 mi ESE 4.6 mph - N/A   Clear
10:51 AM 66.9 °F 46.0 °F 47% 30.17 in 10.0 mi Variable 4.6 mph - N/A   Clear
11:51 AM 68.0 °F 46.9 °F 47% 30.16 in 10.0 mi ESE 6.9 mph - N/A   Clear
12:51 PM 70.0 °F 46.9 °F 44% 30.14 in 10.0 mi SE 5.8 mph - N/A   Clear
1:51 PM 72.0 °F 48.0 °F 43% 30.13 in 10.0 mi North - - N/A   Clear
2:51 PM 73.9 °F 48.9 °F 41% 30.11 in 10.0 mi Variable 4.6 mph - N/A   Clear
3:51 PM 75.9 °F 48.0 °F 37% 30.08 in 10.0 mi WSW 9.2 mph - N/A   Clear
4:51 PM 75.9 °F 46.9 °F 36% 30.06 in 10.0 mi WSW 9.2 mph - N/A   Clear
5:51 PM 75.0 °F 48.0 °F 38% 30.06 in 10.0 mi South 8.1 mph - N/A   Clear
6:51 PM 73.9 °F 48.9 °F 41% 30.04 in 10.0 mi WSW 5.8 mph - N/A   Clear
7:51 PM 70.0 °F 51.1 °F 51% 30.03 in 10.0 mi South 3.5 mph - N/A   Clear
8:51 PM 68.0 °F 51.1 °F 55% 30.00 in 10.0 mi SSE 5.8 mph - N/A   Clear
9:51 PM 66.0 °F 52.0 °F 60% 30.01 in 10.0 mi SSE 6.9 mph - N/A   Clear
10:51 PM 66.0 °F 54.0 °F 65% 30.01 in 10.0 mi SSE 10.4 mph - N/A   Clear
11:51 PM 64.9 °F 55.0 °F 70% 30.01 in 10.0 mi SSE 9.2 mph - N/A   Clear